Temp
-6 -6 -6 -6 -6 -6 -5 -6 -6 -7 -7 -7 -7 -8 -7 -7 -8 -8 -8 -7 -7 -7 -8 -8 -8 -9 -9 -9 -10 -10 -10 -10 -9 -9 -10 -10 -9 -9 -9 -8 -9 -9 -9
-6 -6 -7 -7 -6 -6 -6 -6 -7 -7 -7 -8 -7 -8 -8 -8 -8 -8 -7 -7 -7 -8 -8 -8 -8 -9 -9 -9 -10 -10 -10 -10 -9 -9 -10 -10 -9 -9 -9 -9 -9 -9 -8
-7 -7 -7 -7 -7 -7 -6 -7 -7 -7 -7 -7 -7 -8 -8 -8 -8 -7 -7 -7 -7 -7 -8 -8 -8 -9 -9 -9 -9 -9 -10 -10 -10 -9 -9 -10 -9 -9 -9 -10 -9 -9 -9
-7 -8 -8 -7 -7 -7 -7 -8 -8 -9 -7 -7 -8 -8 -8 -7 -7 -6 -7 -7 -7 -7 -8 -8 -8 -8 -9 -9 -9 -9 -10 -9 -10 -9 -9 -10 -10 -9 -9 -9 -9 -9 -9
-6 -7 -7 -7 -8 -8 -8 -8 -9 -9 -8 -8 -8 -8 -8 -7 -6 -6 -7 -7 -7 -7 -8 -8 -8 -8 -8 -9 -9 -9 -10 -9 -9 -9 -9 -10 -10 -10 -9 -10 -10 -9 -9
-6 -6 -6 -9 -9 -9 -8 -8 -8 -8 -9 -9 -8 -7 -8 -7 -7 -7 -7 -7 -7 -7 -8 -8 -8 -8 -9 -9 -9 -9 -9 -10 -10 -9 -9 -10 -10 -10 -10 -10 -10 -10 -10
-6 -7 -7 -7 -8 -9 -10 -9 -9 -9 -9 -8 -8 -8 -7 -7 -7 -7 -7 -7 -7 -8 -8 -8 -8 -8 -9 -9 -9 -9 -10 -10 -10 -10 -9 -10 -10 -10 -10 -10 -10 -10 -9
-6 -7 -8 -8 -9 -9 -10 -9 -9 -8 -8 -8 -8 -8 -8 -8 -8 -8 -8 -8 -8 -8 -8 -8 -8 -9 -9 -9 -9 -9 -10 -10 -10 -10 -10 -10 -10 -10 -10 -10 -10 -9 -9
-7 -7 -7 -8 -10 -10 -9 -9 -9 -9 -9 -8 -8 -8 -8 -8 -8 -8 -8 -8 -8 -8 -8 -8 -8 -9 -9 -10 -9 -10 -10 -10 -10 -10 -10 -10 -10 -10 -10 -10 -10 -10 -10
-7 -8 -8 -9 -9 -9 -9 -9 -9 -9 -9 -8 -8 -9 -9 -9 -9 -9 -9 -9 -9 -9 -9 -9 -9 -9 -9 -10 -9 -10 -10 -10 -10 -10 -10 -10 -10 -10 -10 -10 -10 -10 -10
-9 -8 -9 -9 -9 -9 -9 -9 -9 -9 -9 -9 -9 -9 -9 -10 -10 -10 -9 -9 -9 -9 -9 -9 -9 -9 -9 -9 -10 -10 -10 -10 -10 -10 -10 -10 -10 -10 -11 -11 -11 -10 -10
-8 -9 -9 -9 -9 -9 -9 -9 -9 -9 -10 -10 -10 -10 -10 -10 -10 -10 -10 -10 -9 -9 -9 -9 -9 -9 -10 -10 -10 -10 -10 -10 -10 -10 -10 -10 -10 -11 -11 -11 -10 -9 -9
-9 -9 -9 -9 -9 -9 -9 -9 -10 -10 -10 -10 -10 -10 -11 -11 -11 -11 -10 -10 -10 -9 -9 -9 -9 -9 -10 -10 -10 -10 -10 -11 -10 -10 -10 -10 -11 -11 -10 -10 -10 -10 -10
-9 -9 -9 -9 -9 -10 -9 -10 -9 -10 -11 -11 -11 -11 -11 -11 -11 -11 -11 -11 -10 -10 -10 -10 -10 -10 -10 -10 -10 -10 -10 -11 -11 -11 -10 -11 -11 -11 -11 -10 -10 -10 -11
-10 -9 -9 -10 -10 -10 -10 -10 -10 -11 -11 -11 -12 -12 -12 -12 -12 -12 -12 -12 -11 -11 -10 -10 -10 -10 -11 -11 -11 -11 -11 -11 -10 -11 -10 -11 -11 -11 -11 -9 -10 -11 -10
-10 -10 -10 -10 -10 -10 -10 -10 -11 -12 -12 -12 -12 -12 -12 -12 -12 -13 -13 -12 -12 -12 -12 -11 -11 -11 -11 -11 -11 -12 -11 -11 -10 -10 -10 -10 -10 -10 -11 -10 -10 -10 -10
-10 -10 -10 -10 -10 -10 -11 -11 -11 -11 -12 -12 -13 -13 -12 -13 -13 -14 -13 -13 -13 -13 -13 -13 -12 -12 -12 -13 -13 -12 -13 -12 -11 -11 -11 -11 -12 -12 -11 -10 -10 -10 -11
-10 -11 -11 -11 -11 -11 -12 -12 -12 -12 -13 -13 -13 -13 -13 -13 -14 -14 -14 -14 -14 -14 -14 -14 -13 -14 -14 -14 -13 -13 -13 -13 -12 -13 -12 -12 -12 -11 -11 -11 -11 -10 -10
-11 -11 -11 -11 -11 -12 -12 -12 -12 -12 -13 -13 -13 -14 -14 -14 -14 -14 -14 -14 -14 -15 -14 -15 -15 -15 -15 -15 -15 -15 -14 -14 -14 -13 -13 -13 -13 -12 -12 -12 -12 -11 -11
-11 -11 -11 -11 -12 -12 -13 -13 -13 -13 -13 -13 -13 -14 -14 -14 -14 -14 -15 -15 -15 -16 -15 -15 -16 -16 -16 -16 -16 -15 -15 -14 -15 -14 -14 -13 -13 -13 -12 -12 -13 -13 -13
-11 -11 -11 -12 -12 -12 -13 -13 -13 -13 -13 -14 -14 -14 -14 -15 -15 -15 -15 -15 -15 -16 -16 -16 -16 -16 -16 -15 -16 -16 -16 -16 -16 -15 -15 -14 -14 -14 -14 -13 -13 -13 -13
-11 -12 -12 -12 -12 -13 -14 -14 -14 -14 -14 -14 -14 -14 -15 -15 -15 -15 -15 -15 -16 -16 -16 -16 -17 -17 -17 -17 -17 -17 -17 -17 -17 -17 -16 -16 -16 -15 -15 -14 -14 -14 -14
-12 -12 -12 -12 -12 -13 -14 -14 -14 -14 -14 -14 -15 -15 -15 -15 -15 -15 -15 -15 -16 -16 -16 -16 -16 -17 -17 -17 -17 -18 -18 -18 -18 -18 -18 -18 -18 -18 -17 -17 -17 -16 -16
-13 -13 -13 -13 -13 -14 -14 -15 -14 -15 -14 -15 -15 -15 -15 -15 -15 -16 -16 -16 -16 -16 -17 -17 -17 -17 -17 -17 -17 -17 -17 -17 -17 -17 -17 -17 -17 -17 -17 -17 -17 -17 -17
-13 -14 -14 -14 -14 -15 -15 -15 -15 -15 -15 -15 -15 -16 -16 -16 -16 -16 -16 -16 -16 -17 -17 -17 -17 -17 -17 -17 -17 -17 -17 -17 -17 -17 -17 -17 -17 -17 -17 -16 -16 -17 -16
-14 -14 -14 -15 -15 -15 -15 -15 -15 -15 -16 -15 -16 -16 -16 -16 -16 -16 -16 -16 -17 -17 -17 -17 -17 -17 -17 -17 -17 -17 -17 -17 -17 -17 -17 -17 -17 -17 -17 -17 -17 -17 -17
Height
5926 5926 5926 5926 5925 5924 5921 5920 5917 5914 5912 5909 5906 5902 5898 5895 5890 5886 5881 5876 5872 5870 5866 5863 5861 5857 5854 5852 5849 5847 5845 5843 5840 5842 5841 5837 5833 5832 5828 5829 5830 5830 5829
5921 5920 5919 5918 5918 5918 5916 5913 5911 5909 5906 5902 5898 5894 5889 5884 5879 5874 5869 5864 5860 5858 5856 5851 5850 5846 5843 5839 5836 5834 5833 5831 5827 5827 5829 5827 5821 5822 5820 5818 5820 5820 5820
5912 5913 5911 5907 5907 5907 5906 5905 5902 5900 5898 5894 5890 5886 5880 5874 5869 5864 5859 5855 5849 5845 5842 5838 5835 5832 5829 5826 5824 5821 5819 5818 5815 5813 5814 5813 5810 5809 5808 5809 5808 5809 5811
5904 5903 5902 5898 5896 5895 5892 5891 5892 5889 5887 5884 5879 5875 5869 5863 5855 5850 5846 5842 5837 5833 5829 5825 5821 5818 5815 5812 5809 5807 5804 5802 5801 5799 5800 5798 5797 5796 5796 5795 5796 5798 5799
5892 5892 5891 5888 5887 5885 5883 5880 5879 5876 5877 5874 5869 5864 5857 5849 5842 5838 5834 5829 5824 5820 5815 5811 5807 5804 5800 5796 5793 5792 5789 5786 5784 5781 5783 5784 5784 5782 5783 5783 5784 5788 5788
5881 5876 5874 5875 5875 5872 5870 5871 5870 5868 5866 5862 5857 5851 5843 5836 5831 5826 5820 5816 5811 5806 5801 5796 5791 5788 5784 5782 5779 5776 5774 5771 5770 5767 5768 5768 5771 5770 5770 5772 5773 5775 5777
5868 5865 5862 5859 5858 5861 5864 5861 5861 5859 5854 5849 5843 5837 5828 5822 5817 5812 5806 5801 5796 5790 5785 5781 5777 5773 5769 5767 5764 5762 5760 5759 5757 5755 5756 5757 5757 5758 5759 5762 5762 5761 5764
5859 5858 5853 5852 5854 5850 5851 5851 5850 5846 5839 5833 5827 5821 5814 5809 5804 5798 5792 5786 5782 5776 5771 5766 5762 5758 5755 5752 5750 5749 5748 5746 5744 5744 5745 5746 5746 5745 5748 5750 5751 5751 5747
5848 5847 5847 5842 5841 5842 5841 5839 5835 5830 5825 5820 5813 5806 5800 5794 5789 5785 5779 5772 5766 5761 5757 5752 5749 5744 5742 5739 5738 5736 5735 5734 5732 5733 5735 5734 5734 5735 5737 5738 5740 5739 5737
5837 5836 5836 5833 5835 5832 5829 5826 5821 5816 5809 5803 5798 5793 5788 5782 5777 5771 5765 5759 5754 5749 5744 5740 5736 5732 5730 5727 5725 5723 5723 5722 5722 5722 5723 5723 5724 5726 5726 5727 5730 5729 5731
5833 5828 5826 5826 5823 5820 5816 5812 5807 5801 5796 5791 5786 5780 5775 5769 5763 5758 5752 5747 5742 5738 5734 5730 5726 5722 5718 5715 5713 5712 5710 5710 5710 5712 5712 5712 5715 5714 5716 5717 5718 5718 5718
5822 5821 5819 5816 5812 5809 5806 5801 5794 5789 5784 5779 5774 5768 5763 5757 5752 5746 5742 5737 5732 5727 5722 5717 5713 5708 5705 5702 5701 5700 5699 5699 5700 5701 5702 5703 5704 5705 5706 5708 5706 5705 5708
5817 5813 5810 5807 5803 5798 5792 5787 5782 5778 5773 5768 5763 5757 5752 5746 5742 5737 5731 5725 5719 5714 5709 5703 5700 5696 5692 5690 5690 5689 5688 5688 5689 5691 5692 5694 5696 5696 5697 5699 5700 5700 5703
5806 5802 5799 5794 5789 5784 5781 5778 5773 5768 5762 5757 5752 5747 5742 5737 5732 5727 5720 5713 5707 5701 5696 5692 5687 5683 5680 5680 5678 5678 5678 5679 5680 5682 5683 5685 5687 5687 5687 5690 5694 5696 5699
5794 5791 5786 5782 5779 5776 5772 5768 5762 5757 5753 5748 5743 5739 5735 5730 5724 5719 5713 5707 5700 5692 5685 5680 5677 5672 5668 5667 5667 5667 5668 5669 5671 5674 5673 5672 5675 5678 5678 5677 5685 5690 5693
5783 5780 5777 5773 5770 5766 5762 5757 5752 5748 5744 5740 5736 5732 5727 5721 5716 5711 5705 5699 5691 5683 5676 5672 5668 5664 5660 5659 5657 5658 5659 5660 5661 5663 5665 5664 5665 5667 5665 5672 5674 5679 5684
5773 5770 5766 5763 5760 5756 5752 5749 5745 5740 5736 5732 5728 5724 5719 5714 5709 5704 5698 5692 5685 5678 5671 5666 5662 5658 5655 5653 5652 5652 5653 5653 5654 5655 5657 5658 5658 5658 5656 5661 5658 5666 5673
5762 5759 5757 5754 5751 5748 5744 5740 5736 5733 5729 5726 5722 5716 5712 5707 5702 5697 5693 5687 5683 5675 5669 5663 5659 5656 5653 5652 5650 5648 5648 5648 5648 5650 5650 5651 5652 5653 5652 5652 5654 5656 5661
5753 5751 5749 5745 5742 5738 5735 5732 5729 5726 5722 5718 5714 5711 5706 5702 5698 5694 5690 5685 5680 5674 5668 5663 5659 5655 5653 5650 5648 5646 5645 5643 5643 5643 5645 5645 5645 5646 5647 5650 5649 5650 5654
5745 5743 5740 5736 5733 5729 5727 5724 5721 5718 5715 5712 5708 5705 5701 5698 5694 5691 5687 5682 5677 5673 5668 5663 5659 5656 5653 5650 5648 5646 5642 5640 5639 5640 5640 5641 5640 5641 5643 5645 5645 5646 5648
5736 5734 5730 5727 5724 5721 5719 5717 5714 5711 5709 5706 5703 5700 5696 5694 5691 5688 5685 5681 5676 5672 5668 5664 5660 5656 5652 5649 5647 5644 5641 5639 5638 5637 5636 5636 5637 5638 5638 5638 5640 5641 5643
5726 5723 5721 5718 5716 5713 5710 5709 5706 5704 5702 5699 5697 5694 5692 5690 5688 5685 5682 5679 5675 5672 5668 5665 5661 5658 5653 5650 5648 5645 5642 5640 5638 5637 5635 5634 5634 5635 5635 5635 5636 5637 5638
5717 5714 5712 5709 5707 5704 5703 5700 5699 5697 5696 5693 5692 5689 5688 5686 5684 5682 5679 5676 5674 5671 5668 5665 5662 5660 5657 5653 5651 5648 5646 5643 5642 5640 5638 5637 5638 5637 5636 5636 5635 5634 5633
5707 5704 5702 5699 5698 5695 5694 5693 5691 5691 5690 5688 5686 5685 5684 5682 5681 5679 5677 5674 5671 5669 5666 5664 5663 5660 5658 5655 5654 5652 5650 5648 5647 5645 5643 5642 5640 5639 5638 5638 5637 5635 5634
5697 5694 5692 5689 5688 5686 5686 5685 5685 5684 5683 5682 5682 5681 5680 5679 5678 5676 5675 5672 5669 5666 5664 5663 5662 5660 5658 5656 5655 5653 5652 5650 5648 5646 5644 5642 5640 5639 5638 5636 5635 5634 5632
5685 5683 5681 5679 5679 5678 5677 5677 5677 5678 5677 5677 5677 5677 5677 5676 5675 5673 5672 5669 5667 5665 5664 5663 5662 5660 5659 5657 5655 5652 5651 5649 5647 5645 5643 5641 5639 5637 5635 5633 5631 5629 5627
Wind_Speed
25 24 22 26 25 27 23 17 21 24 27 27 31 33 37 42 44 50 49 47 46 43 40 41 41 43 41 45 47 45 48 47 45 41 40 41 40 39 42 40 36 29 28
26 29 29 27 30 28 29 28 26 28 31 36 38 41 43 46 49 50 46 44 42 39 41 43 43 44 45 46 47 49 49 49 50 47 44 44 45 42 43 43 40 39 39
30 33 32 29 37 37 36 36 35 32 41 37 41 45 48 54 54 52 46 44 42 42 43 44 44 45 46 48 50 51 52 51 51 50 47 48 48 44 46 45 45 44 42
29 29 39 46 43 44 43 28 28 28 33 41 45 50 53 58 54 49 46 45 46 46 47 48 49 50 50 50 51 51 52 52 52 52 48 49 49 47 42 46 45 47 46
32 37 44 50 48 49 42 36 29 29 36 43 47 55 57 51 49 46 47 48 48 48 49 49 50 51 51 51 51 50 52 52 53 53 50 49 47 47 44 45 43 44 48
54 48 54 47 49 53 48 35 45 36 41 48 53 55 51 49 47 48 48 47 48 49 49 49 49 51 51 51 50 49 49 47 48 51 45 42 40 43 42 40 40 42 49
64 58 56 56 55 21 25 27 33 42 46 53 56 57 51 51 47 47 48 49 50 49 48 47 48 48 46 44 43 44 45 44 43 38 36 36 41 41 39 36 37 40 42
56 61 37 25 37 39 33 37 43 49 52 50 51 51 50 49 47 49 49 49 48 47 47 48 49 46 42 41 40 40 40 38 38 38 34 36 36 38 34 34 35 36 45
60 42 48 38 33 38 43 45 46 46 45 52 52 50 49 49 50 50 48 47 45 46 46 46 47 44 42 40 39 39 37 35 36 36 36 37 35 31 32 34 32 33 28
40 39 43 39 41 46 48 46 49 49 49 50 49 50 49 49 48 46 45 44 43 42 43 42 43 42 41 37 36 35 35 35 35 36 35 34 32 32 33 33 36 37 31
36 39 40 44 48 50 49 53 52 50 49 49 51 49 48 45 45 45 44 43 42 42 43 42 42 39 36 35 34 32 33 33 35 34 33 31 28 30 32 33 35 37 41
42 45 48 51 51 48 50 49 49 50 51 50 46 43 43 44 44 43 42 42 42 41 42 41 38 37 36 33 34 32 32 32 32 32 31 29 32 32 31 31 35 32 34
46 48 50 45 47 50 49 49 50 48 44 42 43 43 42 43 43 44 43 41 40 40 39 40 37 37 34 34 36 33 31 31 29 31 28 28 31 33 30 31 29 31 37
49 45 43 48 48 48 45 43 43 43 42 42 43 40 40 41 42 42 40 40 41 40 41 41 36 32 32 32 32 33 31 29 26 26 27 27 29 36 36 29 27 29 30
41 45 44 44 44 40 40 44 45 44 41 38 37 38 39 40 39 38 35 31 36 38 38 34 28 29 29 30 28 29 28 29 27 25 28 31 27 36 35 36 36 33 35
45 43 43 41 37 37 41 43 38 34 36 37 37 37 37 38 36 33 30 29 28 31 30 25 22 22 24 24 24 24 23 25 26 25 29 29 38 41 45 46 50 39 39
42 41 38 36 37 39 38 37 36 37 36 34 34 35 37 33 30 27 27 27 28 29 27 20 16 16 14 15 17 19 19 20 22 28 32 33 36 15 44 43 42 40 42
40 37 38 39 38 35 34 31 30 32 32 32 34 32 29 27 26 26 27 26 28 31 27 21 18 15 9 7 13 12 15 17 17 12 16 19 26 23 31 26 27 44 42
36 38 36 33 32 32 32 31 30 29 31 32 29 26 25 27 25 24 23 25 26 28 27 19 16 13 10 9 11 12 11 14 15 16 13 15 12 14 22 24 18 28 34
35 32 32 34 33 34 33 30 27 28 27 27 23 25 26 25 23 21 21 23 24 23 24 24 17 11 11 11 14 11 13 19 20 17 23 20 16 16 18 19 21 21 20
31 33 33 33 36 35 32 28 27 25 24 22 23 24 26 23 21 19 20 20 21 22 20 21 23 22 14 12 12 13 14 13 11 15 11 14 19 21 22 21 19 20 22
34 34 35 36 33 34 28 26 25 22 21 22 23 24 21 20 18 18 19 19 19 20 18 17 17 18 19 15 13 9 8 8 11 7 2 4 7 10 13 17 20 21 23
34 36 34 36 34 32 25 24 22 23 22 19 20 19 16 16 15 17 17 19 18 18 17 14 16 14 14 15 15 15 17 16 16 15 14 13 11 10 9 8 7 7 10
36 36 35 34 32 28 23 21 23 20 19 20 18 15 15 15 15 17 19 19 17 17 13 11 12 12 10 9 9 10 12 12 12 12 12 12 12 12 12 12 12 11 11
35 35 35 34 29 26 24 24 23 22 18 18 15 14 14 15 15 17 18 17 15 14 10 9 10 8 8 9 10 12 13 13 13 14 14 15 15 16 17 17 17 17 18
35 34 32 30 27 25 24 22 16 18 18 18 16 14 13 14 15 16 15 14 12 11 9 8 8 8 9 10 11 12 12 11 12 14 15 16 18 20 22 22 23 25 25
Wind_Direction
277 287 292 292 285 290 267 263 266 266 275 287 298 307 308 309 310 311 305 299 296 291 287 287 285 280 278 278 282 284 283 286 285 284 285 284 282 279 278 273 272 252 244
273 281 283 282 283 290 268 258 272 287 295 300 303 308 304 310 309 311 304 298 292 289 287 285 285 283 283 281 280 281 280 280 283 284 281 282 278 276 274 270 268 252 250
253 261 265 253 277 277 270 266 263 283 287 291 300 305 307 309 304 300 298 296 295 293 290 288 286 283 282 280 279 278 277 277 278 278 278 278 278 278 273 268 264 263 260
261 262 263 270 272 270 266 276 272 286 292 296 303 301 302 303 298 297 296 295 295 293 291 289 288 287 286 284 282 280 280 280 278 275 276 274 274 274 271 267 263 263 264
268 258 257 265 262 273 260 258 277 307 291 293 297 299 300 298 297 294 295 295 295 293 292 290 288 287 286 284 283 281 278 278 278 277 273 270 270 271 269 264 268 261 262
262 256 257 252 252 256 263 287 286 294 287 294 300 302 297 297 297 295 295 294 292 292 292 292 292 289 286 283 281 281 279 276 276 278 276 267 265 265 267 268 267 264 257
260 260 265 266 253 289 304 302 296 296 299 299 300 301 297 300 298 295 295 295 296 295 293 293 292 290 285 282 280 277 274 276 277 272 271 268 265 266 265 263 269 262 272
266 264 258 308 278 314 317 308 302 303 301 299 302 304 300 296 295 297 299 298 296 295 295 295 294 291 286 283 280 277 274 278 271 267 266 267 270 268 263 257 264 264 278
267 262 271 302 318 312 314 312 308 304 300 305 306 301 299 300 298 297 298 300 299 297 296 296 295 293 289 283 279 275 275 276 268 266 268 268 268 264 259 259 259 263 232
287 297 296 315 311 314 313 308 306 303 304 304 302 298 297 298 301 303 302 300 298 297 297 297 296 292 287 283 280 279 273 268 267 267 267 267 266 261 259 263 262 257 244
288 303 311 312 315 314 310 308 306 303 302 299 296 298 303 304 304 304 304 303 301 299 298 298 294 294 290 286 281 279 277 267 264 264 268 267 260 262 262 264 267 264 263
297 305 310 310 310 309 307 305 304 301 298 298 300 304 305 306 306 305 303 300 298 297 297 297 299 295 287 286 282 278 274 273 268 264 267 261 255 260 262 263 267 243 240
300 305 306 305 304 304 305 303 302 299 300 302 305 305 306 307 308 308 308 307 306 305 305 306 304 294 287 282 276 273 272 273 268 262 262 262 255 254 258 258 245 224 222
303 302 304 305 305 303 300 301 305 303 302 303 305 306 306 307 309 309 312 312 314 314 314 310 306 295 289 278 273 271 268 269 266 264 254 260 261 252 254 244 254 220 221
302 302 303 303 300 299 298 301 302 302 304 305 306 307 308 309 309 309 311 313 313 313 311 311 307 295 284 277 271 269 263 262 259 244 252 241 262 265 260 224 248 237 239
299 301 299 297 298 301 301 302 304 309 313 311 309 309 308 307 308 309 313 320 322 325 318 304 299 295 287 283 281 275 265 257 257 250 244 250 271 290 238 238 225 237 240
296 297 297 298 300 302 304 303 304 310 310 307 307 309 308 309 309 309 315 327 334 338 337 324 306 307 302 290 285 283 273 263 257 249 250 256 264 294 248 241 223 238 242
296 294 296 300 299 299 298 303 310 310 307 310 312 310 310 311 311 313 321 332 334 348 348 340 336 327 330 296 295 282 259 251 257 269 257 248 242 239 248 271 251 232 237
291 294 296 298 300 300 303 307 307 305 308 311 314 312 313 314 309 317 327 332 338 349 358 356 352 346 327 317 289 263 258 277 264 277 270 262 245 235 244 252 263 246 243
290 293 298 301 303 303 301 301 300 304 309 313 311 313 313 312 313 323 332 333 340 350 1 1 356 354 355 350 344 331 302 282 277 267 268 276 256 263 260 257 271 280 279
290 297 298 298 301 301 300 294 295 301 307 308 309 311 311 313 316 324 329 332 335 342 355 8 3 359 339 319 321 327 335 331 304 262 246 256 266 266 265 266 264 260 252
295 295 296 297 297 298 295 287 288 289 300 307 305 306 309 312 314 325 329 332 331 336 340 347 353 1 5 10 6 5 358 353 344 350 37 224 241 248 248 248 252 253 253
293 293 293 293 294 295 287 283 291 290 302 307 300 297 303 302 313 321 323 330 330 327 331 336 343 347 7 11 13 22 39 38 32 33 35 34 29 27 21 7 346 319 303
291 291 292 289 289 285 278 281 283 286 295 299 289 292 294 299 313 316 320 326 332 332 328 330 343 346 351 3 18 28 33 37 34 29 27 24 20 17 6 357 348 341 329
288 288 287 285 282 276 273 270 272 280 284 278 278 284 288 300 314 314 318 322 331 334 332 332 336 347 358 14 15 11 9 10 14 20 19 15 8 360 349 342 334 327 320
288 283 279 277 275 270 271 277 263 266 267 260 269 276 289 304 309 313 314 322 328 329 332 335 349 9 6 358 356 2 3 4 357 347 343 341 338 334 328 322 316 311 305